NEOSSAT

Last updated on Thu Nov 21 2024 00:03:26 GMT+0000 (Coordinated Universal Time)

1 39089U 13009D 24325.48056221 .00000431 00000+0 16504-3 0 9992 2 39089 98.4017 148.7811 0011582 151.5906 208.5914 14.35399120614427
UTC large
Height (km)
Speed (km/s)
/
Latitude / Longitude
Inclination (degrees)
Orbital Period (minutes)
Azimuth
Elevation
Range (km)
Doppler Factor

Next 0 passes for location: London (51.5072 / 0.1276)

Sorry there are no passes over London.